NOAA-17
1 27453U 02032A 12067.87123964 .00000008 00000-0 21032-4 0 06261
2 27453 098.3486 099.9787 0012724 094.2260 266.0361 14.24399848504330
NOAA-18
1 28654U 05018A 12067.92157822 .00000377 00000-0 23241-3 0 01030
2 28654 099.0345 025.2302 0015162 080.2969 279.9895 14.11615553350278
NOAA-19
1 33591U 09005A 12067.69401595 .00000005 00000-0 27201-4 0 02916
2 33591 098.8553 008.7849 0013541 311.3380 048.6619 14.11301114158690
HUBBLE
1 20580U 90037B 12068.28511873 .00001749 00000-0 11696-3 0 9588
2 20580 028.4699 083.7260 0003334 068.9947 291.1075 15.02245874999546
ISS
1 25544U 98067A 12068.80260505 .00017971 00000-0 23171-3 0 1537
2 25544 051.6406 265.4244 0017716 134.9286 342.9388 15.58908139762366
CO-58
1 28895U 05043F 12068.58335821 .00000765 00000-0 16655-3 0 1172
2 28895 097.9315 299.2012 0018768 106.2309 254.0982 14.60508883338977
FALCON
1 30776U 07006E 12067.70517199 .00004034 00000-0 26824-3 0 03182
2 30776 035.4321 176.3304 0002063 230.9842 129.0692 15.06766555274936
MAST
1 31126U 07012K 12067.58859055 .00000630 00000-0 15051-3 0 4027
2 31126 097.8792 084.6209 0095166 067.4177 293.7048 14.54052479259500
CAPE1
1 31130U 07012P 12068.50244326 .00000527 00000-0 12979-3 0 4148
2 31130 097.8857 081.9298 0102959 076.9724 284.2933 14.52794403259154
COMPASS
1 32787U 08021E 12068.65757036 .00001978 00000-0 24584-3 0 2437
2 32787 097.8120 132.1927 0015913 033.5637 326.6635 14.83586585208900
AAUSAT2
1 32788U 08021F 12067.83870776 .00001808 00000-0 22385-3 0 02354
2 32788 097.8142 131.7188 0015385 038.5879 321.6416 14.83868159208806
DO-64
1 32789U 08021G 12068.65205666 .00003570 00000-0 42324-3 0 2494
2 32789 097.8246 134.1818 0015065 032.0990 328.1201 14.85075517208957
CO-66
1 32791U 08021J 12067.73298487 .00001645 00000-0 20810-3 0 02372
2 32791 097.8126 131.1043 0016482 035.9625 324.2705 14.83074304208705
RS-30
1 32953U 08025A 12068.76005739 .00000010 00000-0 00000 0 0 5908
2 32953 082.5076 357.5876 0018473 163.4216 196.7476 12.43021436172083
TACSAT-3
1 35001U 09028A 12068.87555765 .00169358 00000-0 90431-3 0 8961
2 35001 040.4479 334.5096 0011804 262.0547 097.8951 15.78945931158565
PHARMSAT
1 35002U 09028B 12068.90092960 .00073232 00000-0 65387-3 0 8191
2 35002 040.4663 340.7508 0001453 020.2273 339.8609 15.67394012158506
METEOR-M
1 35865U 09049A 12068.73100192 -.00000431 00000-0 -17577-3 0 2127
2 35865 098.6672 124.8850 0002248 005.1434 354.9740 14.21855286128328
RS-38
1 35869U 09049E 12068.76665834 .00000149 00000-0 87092-4 0 2206
2 35869 098.6633 124.9313 0004297 354.0562 006.0560 14.22057675128342
JUGNU
1 37839U 11058B 12068.75401376 .00000620 00000-0 19019-3 0 1022
2 37839 019.9556 246.6808 0018700 197.7906 162.1847 14.12029162 21039
SRMSAT
1 37841U 11058D 12068.74279691 .00000264 00000-0 00000 0 0 1049
2 37841 019.9684 249.6253 0012256 168.5354 191.5314 14.10120593 20991
RAX-2
1 37853U 11061D 12068.89871544 .00005545 00000-0 44987-3 0 1163
2 37853 101.7133 063.4828 0250172 276.5609 080.7172 14.79102565 19563
AUBIESAT
1 37854U 11061E 12068.87707347 .00005987 00000-0 47862-3 0 1199
2 37854 101.7181 063.5791 0250991 275.9347 081.3328 14.79424191 19559
HRBE
1 37855U 11061F 12067.93544331 .00005321 00000-0 42660-3 0 01281
2 37855 101.7203 062.1959 0251848 278.9442 078.3333 14.79305558019419
RS-39
1 38051U 11062C 12068.84275463 .00009876 00000-0 43183-3 0 1324
2 38051 051.6467 277.3923 0011501 039.1399 148.8731 15.22629941 6675
